www.pogodaiklimat.ru

Погода и климат >> Архив погоды >> Россия >> Чукотка >> Эньмувеем


ПОГОДА в Эньмувееме

  • Прогноз погоды в Эньмувееме
  • Монитор погоды в Эньмувееме

АРХИВ ПОГОДЫ в Эньмувееме

Время (UTC), дата Ветер
(напр.,м/с)
 
Видим.   Явления Облачность Т
(С)
Тd
(С)
f
(%)
Тe
(С)
Тes
(С)
Комфортность P
(гПа)
Po
(гПа)
Тmin
(С)
Tmax
(С)
R
(мм)
R24
(мм)
S
(см)
06 12.02 СЗ 3
{13}
50 км {метель} 4/0
[Ci fib]
-28.8 -32.5 70 -38 -38 опасность
обморожения
1005.7 994.8 -25.1
12 12.02 З 2
{6}
50 км 8/0
[Ac trans Ci fib]
-28.4 -32.2 70 -36 -36 опасность
обморожения
1010.1 999.4
21 12.02 СЗ 1
{4}
50 км 10/0
[Ac As]
-25.2 -29.1 70 -29 -29 1014.4 1003.6
00 13.02 СЗ 2
{4}
50 км 9/0
[Ac trans]
-24.5 -28.5 69 -31 -31 опасность
обморожения
1015.8 1005.0
03 13.02 З 1
{4}
50 км 8/0
[Ac trans Ci fib]
-24.5 -28.5 69 -28 -28 1017.2 1006.4
09 13.02 штиль 0
{5}
50 км 9/0
[Ac trans Ci fib]
-28.2 -32.0 70 -28 -28 1022.4 1011.5
12 13.02 штиль 0
{2}
50 км 8/0
[Ac trans Ci fib]
-30.6 -33.6 75 -31 -31 опасность
обморожения
1025.6 1014.4
15 13.02 штиль 0
{2}
50 км 4/0
[Ac trans Ci fib]
-32.9 -36.4 71 -33 -33 опасность
обморожения
1027.2 1016.0
03 14.02 СЗ 1
{3}
50 км 3/0
[Ci fib]
-32.6 -36.1 71 -37 -37 опасность
обморожения
1026.2 1015.0
06 14.02 штиль 0
{2}
50 км 6/0
[Ac trans Ci fib]
-37.5 -41.1 69 -38 -38 опасность
обморожения
1024.5 1013.1 -32.4
09 14.02 С 2
{4}
50 км 6/0
[Ci fib]
-35.9 -38.6 76 -44 -44 опасность
обморожения
1021.6 1010.3
12 14.02 СЗ 2
{5}
50 км 8/0
[Ac trans Ci fib]
-35.4 -39.0 69 -44 -44 опасность
обморожения
1018.4 1007.1
15 14.02 СЗ 1
{1}
50 км 9/0
[Ac trans Ci fib]
-32.5 -36.1 70 -37 -37 опасность
обморожения
1014.2 1003.1
18 14.02 СЗ 2
{5}
50 км 10/0
[Ac As]
-24.1 -28.1 69 -31 -31 опасность
обморожения
1008.7 998.0 -38.4 31
21 14.02 СЗ 2
{5}
2000 м снег 10/0
[As op]
-21.0 -24.3 75 -27 -27 1004.7 994.2
03 15.02 З 1
{4}
10 км слаб. снег 10/4 600 м
[Sc As op]
-15.8 -20.0 70 -18 -18 998.4 988.2
06 15.02 З 1
{4}
50 км {снег} 10/6 600 м
[Sc As op]
-14.3 -17.8 75 -17 -17 998.0 987.8 -13.5 3
09 15.02 ЮЗ 2
{4}
10 км слаб. снег 10/10 600 м
[Sc]
-12.2 -15.7 75 -17 -17 997.2 987.2
12 15.02 СЗ 1
{5}
50 км {снег} 10/6 600 м
[Sc Cs]
-11.1 -14.7 75 -13 -13 996.0 986.0
15 15.02 С 1
{4}
10 км слаб. снег 10/10 600 м
[Sc]
-8.7 -12.0 77 -11 -11 994.1 984.1
18 15.02 штиль 0
{3}
10 км слаб. снег 10/10 600 м
[Sc]
-8.9 -11.8 79 -9 -9 993.5 983.5 -14.5 0.5 32
21 15.02 штиль 0
{2}
50 км в посл. час снег 10/10 600 м
[Sc]
-7.1 -10.0 80 -8 -8 992.8 983.0
00 16.02 СВ 3
{7}
50 км {снег} 10/10 600 м
[Sc]
-4.2 -8.0 75 -9 -9 989.8 980.1
03 16.02 С 4
{9}
50 км позёмок 10/10 600 м
[Sc]
-4.0 -7.7 75 -10 -10 985.6 975.9
06 16.02 штиль 0
{2}
50 км в посл. час снег 10/10 600 м
[Sc]
-7.1 -10.0 80 -8 -8 992.8 983.0
09 16.02 С 4
{9}
50 км позёмок 10/10 600 м
[Sc]
-4.0 -8.1 73 -10 -10 979.2 969.6
12 16.02 С 5
{10}
50 км позёмок 10/10 600 м
[Sc]
-4.3 -8.5 72 -11 -11 976.6 967.0
15 16.02 СВ 6-10
{12}
20 км позёмок 10/10 600 м
[Cb cap]
-3.8 -6.4 82 -11 -11 974.0 964.6
18 16.02 В 4
{12}
50 км позёмок 10/10 600 м
[Cb cap]
-1.5 -4.9 78 -7 -7 974.8 965.4 -4.8 28
21 16.02 ЮВ 3
{9}
50 км {метель} 8/8 600 м
[Cb cap]
-2.6 -7.1 71 -7 -7 977.8 968.4
00 17.02 ЮВ 3
{7}
50 км {метель} 8/8 600 м
[Cb cap]
-3.6 -9.3 65 -9 -8 981.5 972.0
03 17.02 ЮВ 3
{7}
50 км 8/8 600 м
[Cb cap]
-5.6 -10.3 69 -11 -11 984.6 974.9
06 17.02 Ю 3
{7}
50 км 8/8 600 м
[Sc diur, vesp]
-8.7 -12.5 74 -14 -14 988.4 978.5 -1.4
09 17.02 Ю 6-10
{12}
20 км позёмок 9/9 600 м
[Sc]
-10.9 -15.3 70 -20 -20 991.7 981.7
12 17.02 штиль 0
{12}
50 км {метель} 10/4 600 м
[Sc Cs]
-12.4 -17.6 65 -12 -12 995.2 985.2
15 17.02 Ю 1
{3}
50 км 4/0
[Ci fib]
-18.1 -21.4 75 -21 -21 997.4 987.2
18 17.02 З 2
{5}
50 км 9/9 600 м
[Sc]
-18.1 -22.2 70 -24 -24 999.0 988.8 -23.4 26
21 17.02 З 2
{6}
50 км 9/9 600 м
[Sc]
-18.2 -22.3 70 -24 -24 999.9 989.7
00 18.02 З 3
{7}
10 км слаб. снег 10/10 600 м
[Sc]
-17.8 -22.8 65 -25 -25 1000.7 990.5
03 18.02 З 3
{7}
10 км слаб. снег 10/10 600 м
[Sc]
-17.1 -21.3 70 -24 -24 1000.7 990.5
06 18.02 ЮЗ 3
{7}
50 км {снег} 10/10 600 м
[Sc]
-16.5 -20.7 70 -23 -23 1001.7 991.4 -16.4 0.3
09 18.02 З 3
{7}
10 км слаб. снег 10/10 600 м
[Sc]
-16.5 -20.7 70 -23 -23 1002.7 992.4
12 18.02 З 3
{7}
10 км слаб. снег 10/10 600 м
[Sc]
-16.5 -20.7 70 -23 -23 1003.8 993.5
15 18.02 З 3
{7}
10 км слаб. снег 10/10 600 м
[Sc]
-15.9 -19.3 75 -23 -23 1004.9 994.6
18 18.02 З 3
{7}
4000 м слаб. снег 10/6 600 м
[Sc As op]
-15.1 -18.5 75 -22 -22 1006.0 995.7 -17.2 1 28
21 18.02 З 1
{6}
4000 м слаб. снег 10/5 600 м
[Sc As op]
-14.7 -18.1 75 -17 -17 1006.7 996.4
00 19.02 СЗ 2
{5}
2000 м снег 10/8 600 м
[Sc As op]
-13.7 -17.2 75 -18 -18 1007.2 996.9
03 19.02 З 2
{5}
4000 м слаб. снег 10/5 600 м
[Sc As op]
-13.0 -16.5 75 -18 -18 1007.4 997.3

 

Местоположение метеостанции Эньмувеем (Чукотка, Россия): широта 66.38 долгота 173.30 высота над уровнем моря 77 м.

В архиве по умолчанию представлена погода в Эньмувееме за последнюю неделю. Архивные данные за месяц целиком и за предыдущие месяцы, начиная с января 2011 года, Вы можете получить, выбрав интересующий диапазон дат из раскрывающегося списка и нажав кнопку "Ввод!".


*Определитесь, кто Вы:
робот инопланетянин человек

Внимание! Время в таблицах - всемирное. Для получения местного времени необходимо прибавить поправку, которая равна 12 ч.

Смотрите также архив погоды в соседних городах и на ближайших метеорологических станциях:

Погода в Танюрере (Чукотка, Россия) (175 км)
Погода в Канчалане (Чукотка, Россия) (205 км)
Погода в Марково (Чукотка, Россия) (231 км)
Погода в Майской (Чукотка, Россия) (244 км)
Погода в Илирнее (Чукотка, Россия) (255 км)
Погода в Анадыре (Чукотка, Россия) (263 км)
Погода в Анадыре АМС (Чукотка, Россия) (268 км)
Погода в Чауне (Чукотка, Россия) (299 км)
Погода в Паляваам-Глубокой (Чукотка, Россия) (307 км)
Погода в Комсомольской (Чукотка, Россия) (307 км)

Пояснения к столбцам:

Ветер - указаны скорость ветра в м/с - средняя за 10 мин, порывы в срок и между сроками (в фигурных скобках) и направление, откуда дует ветер: С - северный, СВ - северо-восточный, В - восточный, ЮВ - юго-восточный, Ю - южный, ЮЗ - юго-западный, З - западный, СЗ - северо-западный.
Видимость - горизонтальная дальность видимости в метрах или километрах. При видимости от 1 до 10 км при отсутствии осадков обычно наблюдается дымка, при ухудшении видимости до 1 км и менее - туман. В сухую погоду видимость может ухудшаться дымом, пылью или мглою.
Явления - указаны атмосферные явления, наблюдавшиеся в срок или в последний час перед сроком; фигурными скобками обозначены явления, наблюдавшиеся между сроками (за 1-3 часа до срока); квадратными скобками обозначены град или гололедные отложения с указанием их диаметра в мм.
Облачность - указаны через наклонную черту общая и нижняя облачность в баллах и высота нижней границы облаков в метрах; квадратными скобками обозначены формы облаков: Ci - перистые, Cs - перисто-слоистые, Cc - перисто-кучевые, Ac - высококучевые, As - высокослоистые, Sc - слоисто-кучевые, Ns - слоисто-дождевые, Cu - кучевые, Cb - кучево-дождевые. Подробнее классификацию облаков см. в Атласе облаков (PDF).
T - Температура воздуха - температура, измеренная на высоте 2 м над землей.
Td - Температура точки росы - температура, при понижении до которой содержащийся в воздухе водяной пар достигнет насыщения.
f - Относительная влажность воздуха - влажноcть воздуха, измеренная на высоте 2 м над землей.
Te - Эффективная температура - температура, которую ощущает одетый по сезону человек в тени. Характеристика душности погоды. При расчете учитывается влияние влажности воздуха и скорости ветра на теплоощущения человека.
Tes - Эффективная температура на солнце - температура, которую ощущает человек, с поправкой на солнечный нагрев. Характеристика знойности погоды. Зависит от высоты солнца над горизонтом, облачности и скорости ветра. Ночью, в пасмурную погоду, а также при ветре 12 м/с и более поправка равна нулю.
P - Атмосферное давление - приведенное к уровню моря атмосферное давление.
Po - Атмосферное давление - измеренное на уровне метеостанции атмосферное давление.
Tmin - Минимальная температура - минимум температуры воздуха на высоте 2 м над землей.
Tmax - Максимальная температура - максимум температуры воздуха на высоте 2 м над землей.
R - Количество осадков - Количество выпавших осадков за период времени, мм. При наведении курсора мыши на число - период времени, за который выпало указанное количество осадков.
R24 - Количество осадков - Количество выпавших осадков за 24 часа, мм.
S - Снежный покров - Высота снежного покрова, см. При наведении курсора мыши на число - состояние снежного покрова и степень покрытия местности в баллах.